星链-1750 (STARLINK-1750 )

导读 | 星芒AI

STARLINK-1750 是 SpaceX Starlink 项目中的第 1750 颗卫星,属于其低轨卫星互联网星座的一部分。该卫星于 2023 年发射,旨在为全球用户提供高速、低延迟的互联网服务。它运行在约 550 公里的轨道高度,采用先进的推进和通信技术,支持全球范围内的宽带连接。Starlink 星座计划由数千颗卫星组成,致力于改善偏远地区的网络接入,推动全球数字包容。STARLINK-1750 的部署进一步增强了 Starlink 网络的覆盖与稳定性。

基本信息
目录编号:
46337
目录名称:
STARLINK-1750
国际标识:
2020-062N
轨道中心:
EARTH
卫星名称:
星链-1750
卫星全名:
星链-1750 (STARLINK-1750 )
卫星状态:
在轨 (已飞行1882 天)
发射日期:
2020-09-03 UTC
国别 :
美国 (US)
星等 :
--
轨道信息
数据来源 国际轨道数据
星历时间: 2025-10-29T19:43:27+0800
4小时前
查看轨道信息
半长轴: 6818.921km
偏心率: 0.0010175
轨道倾角: 53.051°
近地点辐角 102.014°
升交点赤经 216.660°
平近点角 258.201°
近地点: 433.847km
远地点: 447.725km
周期: 93.397分钟
每日圈数: 15.418046
详细信息
固有亮度:
5
最大亮度:
2.5
卫星平台:
Starlink V1.0
覆盖范围:
全球
运营商:
太空探索技术公司
运营商所在国:
美国
制造商(研发单位):
太空探索技术公司
制造商所在国:
美国
使用方式:
暂无
卫星简介
星链(Starlink)计划是由太空探索技术公司(SpaceX)提出的一个巨型低轨卫星互联网星座项目,计划在2019年至2024年间在太空搭建由约1.2万颗卫星组成的“星链”网络,其中1584颗将部署在地球上空550千米处的近地轨道,并从2020年开始工作。该卫星仍在工作。
2D轨道图
3D轨道图
轨道高度分析图
轨道倾角分析图
轨道综合分析图
查看轨道综合分析图